{"data":{"norad_id":60381,"epoch":"2026-09-22T20:02:42.607968Z","epoch_age_seconds":81821,"freshness":"FRESH","line1":"1 60381U 24140C   26265.83521537  .00000039  00000+0  41691-4 0  9990","line2":"2 60381  88.9643 269.6937 0016048  98.1442 262.1530 13.51023210105673","mean_motion":13.5102321,"eccentricity":0.0016048,"inclination_deg":88.9643,"raan_deg":269.6937,"arg_perigee_deg":98.1442,"mean_anomaly_deg":262.153,"bstar":4.1691e-5,"rev_number":10567,"period_min":106.58588167408,"perigee_km":1056.5459402618,"apogee_km":1080.4466544931,"semimajor_km":7446.6332973774,"source":"CELESTRAK","updated_at":"2026-09-23T09:00:20.566490Z"}}